Gulf Bridge — A8JM5 — position and weather

sailwx.info

Track history (hours):
 
Tides and Currents Weather Stations Pressure Air Temp Water Temp Dewpoint Dewpoint Depression Visibility Wind Speed Wind Dir Waves Ship Positions

Gulf Bridge

Last reported at 2014-Oct-23 20:33 UTC. Time now 2014-Oct-23 21:19 UTC.
Position S 38°25' E 148°52'.

Length 213 m; beam 32.2 m; draft 11.5 m.

Type: Cargo ship. MMSI: 636091115.

Date/timePositionNaut miles runAvg speedWind from/ knotsBaromVisibWave heightAir tempDewpointWater temp
2014-Oct-23 20:33S 38°25' E 148°52'1313.0
2014-Oct-23 19:33S 38°16' E 149°04'1313.0
2014-Oct-23 18:31S 38°07' E 149°17'1412.5
2014-Oct-23 17:26S 37°59' E 149°30'1112.4
2014-Oct-23 16:33S 37°52' E 149°41'1212.6
2014-Oct-23 15:34S 37°43' E 149°52'1312.8
2014-Oct-23 14:33S 37°33' E 150°03'1313.1
2014-Oct-23 13:33S 37°21' E 150°10'5212.9
2014-Oct-23 09:31S 36°31' E 150°25'1313.3
2014-Oct-23 08:33S 36°18' E 150°28'1313.4
2014-Oct-23 07:33S 36°05' E 150°33'1913.2
2014-Oct-23 06:04S 35°47' E 150°41'109 3.6
2014-Oct-21 23:32S 34°04' E 151°24'8 7.2
2014-Oct-21 22:25S 34°12' E 151°24'5 1.7
2014-Oct-21 19:29S 34°08' E 151°28'4 1.6
2014-Oct-21 17:11S 34°05' E 151°30'5 6.6
2014-Oct-21 16:27S 34°07' E 151°35'  
Track history (hours):
 
Tides and Currents Weather Stations Pressure Air Temp Water Temp Dewpoint Dewpoint Depression Visibility Wind Speed Wind Dir Waves Ship Positions

Gulf Bridge

Last reported at 2014-Oct-23 20:33 UTC. Time now 2014-Oct-23 21:19 UTC.
Position S 38°25' E 148°52'.

Length 213 m; beam 32.2 m; draft 11.5 m.

Type: Cargo ship. MMSI: 636091115.

Date/timePositionNaut miles runAvg speedWind from/ knotsBaromVisibWave heightAir tempDewpointWater temp
2014-Oct-23 20:33S 38°25' E 148°52'1313.0
2014-Oct-23 19:33S 38°16' E 149°04'1313.0
2014-Oct-23 18:31S 38°07' E 149°17'1412.5
2014-Oct-23 17:26S 37°59' E 149°30'1112.4
2014-Oct-23 16:33S 37°52' E 149°41'1212.6
2014-Oct-23 15:34S 37°43' E 149°52'1312.8
2014-Oct-23 14:33S 37°33' E 150°03'1313.1
2014-Oct-23 13:33S 37°21' E 150°10'5212.9
2014-Oct-23 09:31S 36°31' E 150°25'1313.3
2014-Oct-23 08:33S 36°18' E 150°28'1313.4
2014-Oct-23 07:33S 36°05' E 150°33'1913.2
2014-Oct-23 06:04S 35°47' E 150°41'109 3.6
2014-Oct-21 23:32S 34°04' E 151°24'8 7.2
2014-Oct-21 22:25S 34°12' E 151°24'5 1.7
2014-Oct-21 19:29S 34°08' E 151°28'4 1.6
2014-Oct-21 17:11S 34°05' E 151°30'5 6.6
2014-Oct-21 16:27S 34°07' E 151°35'  

Dump ship's entire track history